GSAT-9 (42695 NORAD) Tracking and Keplerian Element Data

This shows tracking and keplerian element data for the satellite.

Feedback or suggestion? Click here.




ElementValue
Catalog42695
NameGSAT-9
Epoch Orbit2831
Epoch Day34.74860882
Epoch Year2025
RAAN261.31
Inclination0.0437
Eccentricity0.0002332
Argument of Perigee58.1974
Mean Anonmoly181.4349
Mean Motion1.00273301
Decay Rate-2.82E-06
L11 42695U 17024A 25034.74860882 -.00000282 00000+0 00000+0 0 9998
L22 42695 0.0437 261.3100 0002332 58.1974 181.4349 1.00273301 28310



Live tracking and technical data element details for GSAT-9 (NORAD 42695). GSAT-9 can be tracked NOW for your location showing map with azimuth and elevation plus other details from your city location.







IsCatalogInMostPopularTable: catalog: 42695, numindb: 606
Update: records affected: 1



GetName: 42695 GSAT-9

Hit Count: updated at: Thu, 22 May 2025 04:45:19 GMT